Weather History for Canton, GA

Change the Weather History Date:

Sunday, October 7, 2012

  Actual Average (KGVL) Record (KGVL)
Temperature  
Mean Temperature 54 °F 64 °F  
Max Temperature 59 °F 74 °F 90 °F (1939)
Min Temperature 50 °F 55 °F 28 °F (1935)
Degree Days  
Heating Degree Days 10 3  
Month to date heating degree days 16  
Since 1 July heating degree days 29  
Cooling Degree Days 0 2  
Month to date cooling degree days 17  
Year to date cooling degree days 1558  
Growing Degree Days 4 (Base 50)    
Moisture  
Dew Point 44 °F    
Average Humidity 68    
Maximum Humidity 88    
Minimum Humidity 45    
Precipitation  
Precipitation 0.00 in 0.15 in 2.36 in (1959)
Month to date precipitation 1.19  
Snow  
Snow - - - ()
Month to date snowfall  
Since 1 July snowfall  
Since 1 September snowfall  
Snow Depth -    
Sea Level Pressure  
Sea Level Pressure 30.06 in    
Wind  
Wind Speed 3 mph ()    
Max Wind Speed 10 mph    
Max Gust Speed 21 mph    
Visibility 9.5 miles    
Events Rain , Thunderstorm    
T = Trace of Precipitation, MM = Missing Value Source: Averaged Metar Reports

Daily Weather History Graph

Daily Weather History Graph

Search for Another Location

Airport:

Trip Planner

Search our weather history database for the weather conditions in past years. The results will help you decide how hot, cold, wet, or windy it might be!

Date:

Astronomy

Oct. 07, 2012 Rise Set
Actual Time 7:37 AM EDT 7:13 PM EDT
Civil Twilight 7:12 AM EDT 7:38 PM EDT
Nautical Twilight 6:42 AM EDT 8:07 PM EDT
Astronomical Twilight 6:13 AM EDT 8:36 PM EDT
Moon No Moon Rise 2:03 PM EDT (10/7)
Length of Visible Light 12h 26m
Length of Day
11h 35m
Waning Gibbous, 56% of the Moon is Illuminated
Oct 7
Waning Gibbous
Oct 8
Last Quarter
Oct 15
New
Oct 21
First Quarter
Oct 29
Full

Hourly Weather History & Observations

Time (EDT) Temp. Dew Point Humidity Pressure Visibility Wind Dir Wind Speed Gust Speed Precip Events Conditions
12:15 AM 55.4 °F 50.0 °F 82% 30.02 in 10.0 mi Calm Calm - N/A   Clear
12:35 AM 55.4 °F 50.0 °F 82% 30.02 in 10.0 mi Calm Calm - N/A   Clear
12:55 AM 55.4 °F 50.0 °F 82% 30.01 in 10.0 mi WNW 3.5 mph - N/A   Clear
1:15 AM 53.6 °F 50.0 °F 88% 30.01 in 10.0 mi NW 8.1 mph - N/A   Scattered Clouds
1:35 AM 53.6 °F 50.0 °F 88% 30.01 in 10.0 mi Calm Calm - N/A   Scattered Clouds
1:55 AM 53.6 °F 50.0 °F 88% 30.02 in 10.0 mi Calm Calm - N/A   Mostly Cloudy
2:15 AM 53.6 °F 50.0 °F 88% 30.02 in 10.0 mi WNW 4.6 mph - N/A   Overcast
2:35 AM 53.6 °F 48.2 °F 82% 30.03 in 10.0 mi WNW 3.5 mph - N/A   Overcast
2:55 AM 53.6 °F 48.2 °F 82% 30.02 in 10.0 mi NW 5.8 mph - N/A   Mostly Cloudy
3:15 AM 53.6 °F 46.4 °F 77% 30.02 in 10.0 mi NW 3.5 mph - N/A   Mostly Cloudy
3:35 AM 53.6 °F 46.4 °F 77% 30.02 in 10.0 mi WNW 3.5 mph - N/A   Mostly Cloudy
3:55 AM 53.6 °F 46.4 °F 77% 30.02 in 10.0 mi WNW 4.6 mph - N/A Rain Light Rain
4:15 AM 51.8 °F 46.4 °F 82% 30.03 in 10.0 mi NW 5.8 mph - N/A Thunderstorm Scattered Clouds
4:55 AM 51.8 °F 46.4 °F 82% 30.01 in 7.0 mi Calm Calm - N/A   Mostly Cloudy
5:15 AM 51.8 °F 46.4 °F 82% 30.00 in 7.0 mi Calm Calm - N/A   Scattered Clouds
5:35 AM 51.8 °F 46.4 °F 82% 30.00 in 7.0 mi Calm Calm - N/A Thunderstorm Scattered Clouds
5:55 AM 51.8 °F 46.4 °F 82% 30.00 in 10.0 mi Calm Calm - N/A   Clear
6:15 AM 51.8 °F 46.4 °F 82% 30.01 in 7.0 mi WNW 3.5 mph - N/A   Mostly Cloudy
6:35 AM 51.8 °F 46.4 °F 82% 30.02 in 7.0 mi West 3.5 mph - N/A   Overcast
6:55 AM 51.8 °F 46.4 °F 82% 30.02 in 10.0 mi NW 3.5 mph - N/A   Scattered Clouds
7:15 AM 51.8 °F 46.4 °F 82% 30.03 in 10.0 mi NW 4.6 mph - N/A   Scattered Clouds
7:35 AM 51.8 °F 46.4 °F 82% 30.02 in 7.0 mi WNW 4.6 mph - N/A   Mostly Cloudy
7:55 AM 51.8 °F 46.4 °F 82% 30.03 in 7.0 mi WNW 3.5 mph - N/A   Scattered Clouds
8:15 AM 51.8 °F 46.4 °F 82% 30.04 in 7.0 mi WNW 4.6 mph - N/A   Scattered Clouds
8:35 AM 51.8 °F 46.4 °F 82% 30.04 in 10.0 mi WNW 3.5 mph - N/A   Mostly Cloudy
8:55 AM 51.8 °F 46.4 °F 82% 30.05 in 10.0 mi WNW 3.5 mph - N/A   Scattered Clouds
9:15 AM 53.6 °F 46.4 °F 77% 30.05 in 10.0 mi WNW 3.5 mph - N/A   Clear
9:35 AM 53.6 °F 44.6 °F 72% 30.06 in 10.0 mi West 5.8 mph - N/A   Clear
9:55 AM 53.6 °F 44.6 °F 72% 30.08 in 10.0 mi West 4.6 mph - N/A   Scattered Clouds
10:15 AM 53.6 °F 44.6 °F 72% 30.09 in 10.0 mi WNW 6.9 mph - N/A   Scattered Clouds
10:35 AM 53.6 °F 44.6 °F 72% 30.09 in 10.0 mi WNW 6.9 mph - N/A   Overcast
10:55 AM 53.6 °F 44.6 °F 72% 30.09 in 10.0 mi WNW 6.9 mph - N/A   Scattered Clouds
11:15 AM 53.6 °F 44.6 °F 72% 30.09 in 10.0 mi WNW 5.8 mph - N/A   Mostly Cloudy
11:35 AM 55.4 °F 44.6 °F 67% 30.09 in 10.0 mi WNW 6.9 mph - N/A   Overcast
11:55 AM 59.0 °F 42.8 °F 55% 30.09 in 1.0 mi WNW 4.6 mph - N/A   Haze
12:15 PM 59.0 °F 42.8 °F 55% 30.11 in 10.0 mi WNW 5.8 mph 16.1 mph N/A   Scattered Clouds
12:35 PM 59.0 °F 42.8 °F 55% 30.10 in 10.0 mi WNW 8.1 mph 18.4 mph N/A   Mostly Cloudy
12:55 PM 59.0 °F 42.8 °F 55% 30.11 in 10.0 mi WNW 6.9 mph - N/A   Overcast
1:15 PM 59.0 °F 42.8 °F 55% 30.11 in 10.0 mi WNW 10.4 mph 18.4 mph N/A   Overcast
1:35 PM 59.0 °F 42.8 °F 55% 30.10 in 10.0 mi WNW 6.9 mph - N/A   Mostly Cloudy
1:55 PM 59.0 °F 41.0 °F 51% 30.09 in 10.0 mi NW 9.2 mph 20.7 mph N/A   Clear
2:15 PM 57.2 °F 41.0 °F 55% 30.09 in 10.0 mi WNW 4.6 mph 18.4 mph N/A   Clear
2:35 PM 55.4 °F 41.0 °F 58% 30.08 in 10.0 mi WNW 6.9 mph - N/A   Mostly Cloudy
2:55 PM 59.0 °F 41.0 °F 51% 30.08 in 10.0 mi WNW 4.6 mph - N/A   Scattered Clouds
3:15 PM 59.0 °F 41.0 °F 51% 30.08 in 10.0 mi NW 6.9 mph - N/A   Scattered Clouds
3:35 PM 57.2 °F 39.2 °F 51% 30.07 in 10.0 mi WNW 8.1 mph - N/A   Clear
3:55 PM 59.0 °F 37.4 °F 45% 30.07 in 10.0 mi NW 8.1 mph - N/A   Clear
4:15 PM 59.0 °F 39.2 °F 48% - 10.0 mi NW 6.9 mph - N/A   Clear
4:35 PM 59.0 °F 39.2 °F 48% 30.06 in - North - - N/A   Clear
4:55 PM 59.0 °F 37.4 °F 45% 30.05 in 10.0 mi North 5.8 mph - N/A   Clear
5:15 PM 59.0 °F 37.4 °F 45% 30.06 in 10.0 mi North 4.6 mph - N/A   Clear
5:35 PM 59.0 °F 39.2 °F 48% 30.06 in 10.0 mi Calm Calm - N/A   Clear
5:55 PM 59.0 °F 39.2 °F 48% 30.06 in 10.0 mi NNW 4.6 mph - N/A   Clear
6:15 PM 57.2 °F 41.0 °F 55% 30.06 in 10.0 mi WNW 3.5 mph - N/A   Clear
6:35 PM 55.4 °F 39.2 °F 54% 30.06 in 10.0 mi Calm Calm - N/A   Clear
7:35 PM 53.6 °F 41.0 °F 62% 30.08 in 10.0 mi West 3.5 mph - N/A   Clear
7:55 PM 53.6 °F 39.2 °F 58% 30.08 in 10.0 mi Calm Calm - N/A   Clear
8:15 PM 51.8 °F 41.0 °F 67% 30.09 in 10.0 mi WNW 3.5 mph - N/A   Clear
8:35 PM 51.8 °F 41.0 °F 67% 30.09 in 10.0 mi NW 4.6 mph - N/A   Clear
10:55 PM 50.0 °F 35.6 °F 58% 30.09 in 10.0 mi NW 3.5 mph - N/A   Clear
11:15 PM 50.0 °F 35.6 °F 58% 30.09 in 10.0 mi NNW 3.5 mph - N/A   Clear
11:35 PM 50.0 °F 35.6 °F 58% 30.08 in 10.0 mi ENE 3.5 mph - N/A   Clear
11:55 PM 50.0 °F 35.6 °F 58% 30.08 in 10.0 mi Calm Calm - N/A   Clear